GFSCGP_850_rhum_096.txt.gz
RH
20 25 33 31 36 34 37 39 42 31 25 24 25 22 22 26 28 27 24 19 14 10 11 13 24 32 40 48 53 58 59 62 66 72 99 97 99 100 99 99 98 100 100 96
24 27 21 22 23 25 27 29 33 26 22 22 23 29 31 31 28 26 26 22 16 13 19 30 39 39 40 43 57 61 63 63 65 60 98 99 97 94 98 99 100 99 100 100
27 23 18 20 22 22 21 23 23 24 22 28 36 32 26 24 31 29 26 23 19 13 22 47 46 41 43 49 53 59 63 64 66 64 96 99 100 100 100 97 98 99 100 100
44 28 20 26 21 20 25 17 16 16 21 30 38 43 30 28 30 30 28 24 20 16 21 32 50 47 46 52 58 61 66 68 63 67 97 98 95 98 99 97 98 99 99 100
34 39 43 42 38 22 22 19 19 17 41 56 57 66 35 42 41 35 28 22 18 16 18 37 49 41 46 52 57 64 72 73 60 76 98 99 92 98 96 98 99 99 100 100
30 22 23 26 24 25 26 28 32 44 56 74 63 56 34 49 40 33 25 20 19 17 18 33 45 50 49 59 62 69 77 76 64 83 97 98 98 98 98 100 100 99 100 100
31 28 23 20 25 24 28 34 53 69 74 72 48 60 42 38 34 34 32 25 24 21 18 48 64 56 53 62 66 75 81 77 68 90 98 98 100 99 100 99 98 98 99 100
42 42 24 22 24 30 37 42 63 62 72 61 55 70 62 40 35 32 33 29 24 24 25 55 52 48 51 59 65 74 81 72 65 86 90 96 100 98 98 97 93 97 96 93
41 35 21 18 18 23 32 42 38 50 55 64 60 48 35 35 47 46 42 38 25 20 30 59 66 50 51 55 58 66 72 70 60 80 88 90 100 95 92 86 87 89 90 93
43 52 35 31 19 23 30 31 46 50 63 67 50 41 41 47 60 52 52 46 45 43 59 69 62 48 49 49 58 68 69 61 54 75 88 86 86 91 84 79 82 80 82 91
54 60 48 37 23 27 30 31 40 45 60 65 65 48 57 72 66 68 49 44 43 37 58 70 54 42 46 55 58 63 71 73 70 68 91 89 88 84 79 72 77 75 73 82
53 68 70 52 43 42 34 27 43 68 60 59 60 49 45 58 69 58 53 51 52 50 31 59 67 63 58 55 58 63 70 76 73 60 86 95 92 86 81 79 80 78 72 70
49 58 68 53 58 61 72 56 38 47 37 41 56 44 25 32 42 49 61 58 48 38 33 33 61 62 60 60 60 66 70 76 75 57 82 97 99 93 91 90 87 86 77 65
41 49 56 63 54 57 70 74 40 50 80 66 55 37 34 42 40 57 64 58 48 37 31 38 64 65 63 64 62 62 67 70 73 66 63 98 98 97 96 94 94 93 90 85
53 56 59 56 46 41 39 55 46 42 47 68 63 59 47 56 53 59 60 56 42 37 32 29 62 66 75 75 70 63 65 66 72 72 62 83 98 98 98 97 96 98 98 94
62 72 67 64 50 50 53 45 40 37 33 35 39 47 74 65 65 67 79 62 42 46 59 51 61 72 78 76 74 67 63 66 73 73 69 56 71 99 97 98 98 98 98 97
65 76 81 82 67 60 62 48 41 37 80 68 60 88 73 76 71 83 92 77 70 78 89 74 78 76 79 86 89 82 81 84 83 79 74 70 63 67 92 98 97 98 98 97
65 71 83 91 67 82 48 48 64 82 82 79 79 82 77 77 74 86 96 95 99 98 98 85 74 63 66 70 79 84 85 60 77 82 81 79 75 76 84 87 96 98 98 98
62 75 89 92 94 65 52 72 78 75 89 76 84 83 81 73 68 80 97 99 100 98 98 96 90 71 58 52 61 59 66 84 88 88 92 92 85 83 83 87 89 93 99 100
63 69 78 93 87 85 82 68 62 64 99 73 80 80 83 81 94 89 97 100 99 100 86 75 76 80 77 76 65 63 56 73 97 100 98 99 99 92 91 86 88 90 91 93
86 88 88 88 93 79 84 80 74 77 99 79 78 80 90 95 97 93 97 99 99 100 99 94 77 66 77 72 78 80 78 76 78 89 99 99 96 99 100 99 97 94 93 96
88 93 96 90 92 89 80 79 82 87 87 73 75 85 98 100 100 88 98 94 99 100 100 99 85 78 76 77 93 98 98 98 99 97 97 100 99 100 100 98 100 100 100 100
96 74 88 75 78 90 90 78 73 70 71 76 82 87 89 91 99 100 90 99 99 98 100 96 90 80 69 73 87 92 97 100 98 99 100 99 100 100 100 100 100 100 100 100
91 81 87 86 94 88 83 79 75 75 75 80 82 84 86 95 100 100 100 100 96 98 100 100 97 80 81 85 90 99 100 99 100 100 99 100 100 99 100 100 100 100 100 100
90 88 99 99 98 82 83 80 78 78 79 82 84 87 91 98 99 100 100 100 100 99 98 99 99 95 98 99 90 93 100 100 99 98 100 100 99 99 99 99 100 100 99 99
92 99 98 98 99 99 88 80 80 81 88 86 90 96 97 99 100 100 100 100 100 100 100 100 98 98 100 100 98 100 97 92 91 98 98 99 100 100 96 92 91 94 95 94

GFSCGP_850_rhum_102.txt.gz
RH
25 30 36 40 42 36 36 43 47 38 31 32 36 35 32 27 23 23 22 18 19 18 15 15 15 14 17 17 18 26 38 44 57 64 67 68 65 93 89 87 81 89 97 99
30 36 24 26 37 41 40 45 47 37 32 33 36 33 28 24 23 20 19 23 22 19 17 17 16 15 16 20 20 27 37 49 55 62 64 65 62 93 93 89 86 89 94 92
35 29 25 28 35 39 39 43 35 38 25 21 26 23 21 22 25 24 23 21 23 22 26 29 26 22 22 19 21 18 38 49 56 61 64 68 66 76 88 96 92 93 92 98
37 30 27 28 29 31 38 28 28 28 24 29 28 33 18 21 22 25 24 23 21 29 39 38 31 25 21 19 27 23 53 55 60 59 65 68 61 55 65 94 99 97 97 100
46 42 39 35 27 25 28 25 27 26 29 25 42 40 38 27 27 26 25 23 35 46 47 42 34 24 22 32 33 33 60 72 64 61 67 68 66 57 72 88 99 100 100 98
34 27 34 38 29 26 26 28 31 36 39 58 40 36 40 33 28 33 33 43 54 54 52 49 47 34 29 37 36 53 69 72 70 68 71 70 64 59 98 100 99 99 100 97
26 24 27 23 28 28 29 42 58 73 78 59 43 51 33 32 37 49 59 61 63 63 59 57 54 55 39 35 38 61 73 67 70 73 75 71 64 72 84 93 94 97 98 91
42 35 28 27 29 32 39 41 62 64 68 57 58 70 54 50 63 61 62 62 60 53 59 60 56 62 50 40 40 60 68 68 67 73 75 70 62 82 85 90 89 95 93 87
46 38 26 26 25 25 38 48 37 46 49 64 56 56 39 58 66 69 70 67 68 64 63 66 58 62 55 42 42 46 77 71 66 70 74 63 69 85 91 95 95 100 99 96
41 43 36 36 23 24 27 32 50 62 66 61 56 56 53 55 62 73 78 80 83 63 61 67 63 66 72 77 72 97 94 68 64 68 74 58 68 85 86 93 90 89 94 96
76 55 47 35 36 32 37 38 40 45 61 56 53 52 53 60 60 73 75 82 82 62 64 66 69 76 83 78 78 97 100 82 68 66 72 56 73 84 83 90 89 81 94 99
85 85 75 49 41 54 33 41 42 58 57 67 60 47 56 55 68 74 87 75 69 73 76 76 83 92 87 78 86 99 100 92 74 68 67 51 74 80 80 85 89 86 84 98
85 88 86 62 59 51 63 63 54 57 58 60 73 59 43 57 61 74 80 66 68 74 80 86 99 94 87 89 100 100 100 99 90 82 64 56 78 83 83 82 87 86 84 89
78 87 88 81 80 66 68 61 64 59 67 59 62 58 56 80 82 74 71 68 81 81 92 98 99 100 96 99 100 100 100 99 91 94 75 58 73 80 87 86 85 88 86 81
88 98 89 84 92 75 62 71 59 57 50 61 52 59 80 85 84 87 90 68 88 93 97 100 100 100 100 100 100 100 94 97 96 92 95 84 65 70 85 90 87 86 91 82
89 97 99 86 77 66 62 69 71 64 63 60 52 60 77 75 79 93 97 96 98 100 100 100 100 99 98 100 100 100 95 92 100 100 100 99 97 84 84 88 89 88 85 80
92 84 91 76 76 71 69 55 60 88 90 84 75 87 81 79 88 96 97 100 100 100 100 100 100 100 98 100 100 100 100 100 99 100 100 100 100 98 85 86 91 93 90 87
95 76 88 84 75 76 83 75 72 84 82 82 78 75 76 83 99 98 100 100 100 100 99 99 100 100 100 100 98 100 99 100 100 100 100 100 99 99 100 95 94 97 95 92
86 76 88 87 96 64 80 78 83 85 98 84 90 85 82 78 89 92 100 100 100 100 100 100 100 100 99 95 98 100 100 100 100 100 100 100 100 100 100 100 100 99 99 98
80 73 75 91 88 89 65 86 79 79 95 84 83 89 86 75 90 93 100 99 100 100 99 100 98 100 100 99 100 99 100 100 100 100 100 100 100 100 100 100 100 100 100 100
94 92 90 88 92 76 73 84 80 86 86 86 94 98 95 94 97 100 100 98 100 100 100 100 100 100 100 100 100 98 97 96 99 100 100 99 99 100 100 100 100 100 100 100
90 92 96 87 92 88 89 84 74 88 90 96 100 99 100 100 100 99 100 100 100 99 100 100 99 100 99 99 100 99 100 100 99 100 100 98 98 99 100 100 99 100 100 100
98 100 98 77 77 89 90 92 87 80 92 97 94 98 99 100 100 99 99 100 98 99 99 99 100 98 100 100 100 100 100 100 100 99 96 99 98 98 99 100 100 100 100 100
96 97 100 97 99 97 99 96 90 87 92 93 93 98 99 98 100 100 100 100 98 98 99 99 100 98 100 100 100 100 100 100 100 100 99 100 100 99 100 100 100 100 100 100
99 100 100 100 100 99 99 100 100 93 92 94 93 97 99 99 99 100 100 100 100 98 98 100 99 99 100 99 100 95 95 98 99 100 99 99 99 100 100 99 100 100 100 100
98 100 100 98 99 99 99 99 95 87 89 91 92 97 100 97 100 100 100 100 100 100 100 100 100 100 99 98 99 99 98 96 96 100 99 100 99 100 100 100 100 100 100 100

GFSCGP_850_rhum_108.txt.gz
RH
16 21 24 17 22 20 19 19 20 17 19 23 23 20 18 16 19 20 20 19 18 18 17 15 25 30 30 24 16 16 24 31 60 74 62 54 46 58 65 70 68 70 64 70
18 23 14 14 17 25 29 35 23 16 23 26 21 19 16 15 16 16 14 12 12 12 11 21 32 39 42 34 42 28 29 48 63 65 56 65 53 62 66 69 72 68 62 72
21 14 14 18 22 28 33 36 33 22 18 21 21 18 14 11 10 9 9 11 11 14 20 30 38 42 46 44 44 48 57 65 80 91 83 93 67 72 74 71 75 80 71 92
19 18 18 24 27 26 28 20 20 27 42 26 14 17 12 11 12 11 12 15 18 28 37 38 40 43 47 51 49 50 66 74 89 95 89 93 64 69 68 66 70 92 80 81
30 22 28 27 24 22 24 16 22 25 26 24 16 17 11 15 14 14 14 20 32 39 42 43 45 46 45 50 66 62 77 83 92 96 96 100 96 93 90 94 88 79 98 88
25 28 20 20 25 22 22 27 24 23 22 28 18 14 13 14 14 16 24 34 40 43 43 42 42 44 44 51 63 82 88 88 88 84 99 100 97 92 92 76 66 65 98 99
23 29 27 28 31 31 22 28 42 48 44 32 22 22 16 17 19 20 28 32 36 39 41 42 41 43 49 55 61 75 90 92 88 99 100 100 100 95 87 78 74 58 95 83
28 32 25 25 29 30 28 28 28 45 39 30 28 32 21 16 23 34 31 32 36 38 41 40 42 46 51 55 62 72 87 97 100 96 99 100 99 99 96 84 68 55 76 92
23 21 18 18 21 21 31 37 22 35 34 38 28 27 32 33 36 35 32 33 34 37 40 46 50 54 59 68 75 76 92 99 100 95 98 100 91 98 96 94 72 83 97 92
40 33 18 19 17 16 21 20 38 31 35 32 18 22 22 39 36 36 32 30 38 44 51 55 58 65 69 70 82 87 93 100 100 99 98 99 96 98 97 97 56 72 75 96
56 38 39 28 27 23 24 31 29 25 27 26 24 25 24 24 29 32 30 38 46 56 58 58 67 74 72 76 78 87 99 98 99 99 98 100 100 98 96 96 70 73 83 99
67 66 43 36 40 22 16 20 24 33 33 31 27 24 31 35 34 36 40 48 54 62 59 60 70 81 80 72 95 97 99 100 99 99 99 100 98 95 91 88 72 73 85 96
79 67 44 44 47 39 37 30 22 26 29 34 39 36 37 40 41 48 50 51 57 67 70 70 76 83 89 74 96 100 97 99 99 100 100 99 95 88 77 86 72 79 86 96
72 63 67 50 47 44 48 40 36 34 39 30 28 26 36 38 43 49 58 75 84 81 79 90 94 91 92 71 98 100 99 100 99 100 100 100 100 85 79 85 72 82 82 89
85 71 63 51 51 54 47 43 37 36 35 41 28 32 34 47 52 66 76 80 81 85 87 95 100 98 97 74 97 98 100 100 99 100 100 100 100 90 100 94 81 86 89 91
92 72 74 60 47 54 52 40 38 35 37 38 35 36 49 60 72 77 81 84 88 94 95 97 99 95 100 81 94 99 100 100 100 100 100 99 99 96 99 90 94 90 89 98
86 77 63 55 47 48 51 42 36 38 43 47 48 56 56 62 81 91 89 91 95 99 99 100 98 98 99 92 96 100 100 100 100 99 99 100 100 82 86 85 95 94 96 96
85 72 61 57 48 64 59 51 44 38 48 50 58 68 58 79 95 97 98 100 100 100 99 100 99 99 97 98 98 100 100 100 100 100 100 100 100 100 93 82 84 91 98 100
53 66 68 64 50 38 38 84 62 54 80 77 89 75 61 84 93 98 100 100 100 99 100 100 100 99 98 100 98 97 100 100 100 100 100 100 100 100 100 100 98 90 90 92
60 64 70 52 56 56 83 93 64 60 90 77 80 78 72 69 97 96 100 99 98 99 99 99 100 100 100 100 98 100 100 100 100 100 100 100 100 100 99 99 98 100 100 96
76 92 85 64 57 40 66 72 78 81 94 91 86 89 85 90 97 100 100 99 100 100 97 99 100 100 100 99 99 100 100 98 100 99 99 100 100 99 100 100 100 98 100 100
64 71 69 62 63 60 81 64 83 94 88 87 91 91 92 98 100 100 99 99 97 98 98 98 99 100 100 100 99 100 98 97 93 98 100 100 99 100 100 99 100 100 100 100
87 79 92 89 94 91 94 95 89 83 80 84 85 90 92 93 99 100 99 99 97 98 98 98 98 99 98 96 90 96 99 98 98 100 100 99 100 98 99 99 100 100 100 100
70 91 90 97 100 98 99 99 98 86 83 84 84 87 89 96 98 100 100 100 97 98 97 98 98 99 100 99 98 99 100 98 99 100 100 99 98 99 99 100 100 100 100 100
82 81 99 100 99 98 99 98 98 99 94 87 89 89 90 91 97 98 100 100 98 97 97 98 97 98 99 100 98 95 94 100 100 100 100 100 100 100 100 100 100 100 100 100
84 96 94 96 98 98 98 99 99 99 96 88 86 89 96 95 94 98 100 100 100 96 97 97 97 97 98 98 95 94 98 99 100 100 100 100 100 100 100 100 99 100 100 100

GFSCGP_850_rhum_111.txt.gz
RH
21 17 18 15 18 19 20 22 22 19 14 20 22 20 16 14 15 16 17 18 17 17 17 17 17 20 22 25 26 26 30 39 62 77 81 87 94 92 71 92 97 89 67 61
19 18 12 12 12 18 21 24 29 20 17 19 19 20 16 14 14 14 15 17 17 16 16 16 16 20 29 32 33 35 37 41 48 65 73 94 99 99 94 69 90 90 84 72
19 13 9 12 14 15 20 24 28 23 20 23 19 21 17 12 11 12 14 15 13 12 11 12 16 28 33 36 37 39 40 42 50 65 78 100 100 98 100 72 62 73 77 76
15 9 10 13 14 15 20 20 23 27 33 44 28 35 18 14 10 10 10 9 9 10 11 15 24 30 34 38 42 52 48 48 52 68 83 98 99 99 99 97 87 94 83 81
20 14 14 16 14 16 20 21 28 29 31 28 24 31 20 11 10 10 10 10 13 18 24 25 29 31 32 33 41 56 62 57 57 64 83 95 98 100 96 100 96 94 88 77
19 14 16 16 13 16 18 22 23 23 26 34 24 20 17 13 13 9 9 14 22 26 28 28 29 31 30 35 45 54 61 65 65 68 84 93 98 95 83 90 97 100 94 89
36 44 16 16 22 20 24 34 53 54 46 40 20 20 16 11 12 12 17 22 27 29 29 30 29 29 32 36 43 51 51 63 70 82 89 95 97 93 81 85 97 100 98 84
27 39 31 23 20 27 27 27 54 60 52 36 19 26 16 11 12 16 20 23 26 28 30 29 31 38 41 42 47 56 61 57 69 81 98 100 98 91 87 88 96 100 94 87
25 25 17 24 20 20 26 26 21 35 36 44 31 20 22 15 16 23 22 21 22 25 27 34 41 47 54 56 58 57 72 68 64 80 99 99 97 96 94 85 92 96 94 96
38 27 15 16 19 18 20 18 30 30 37 34 21 25 25 24 25 25 22 24 25 29 35 41 44 53 61 63 67 68 84 76 68 81 98 98 96 96 91 90 98 96 82 89
49 42 21 15 20 19 18 23 22 20 21 27 29 26 24 25 24 27 23 24 28 34 41 42 48 56 63 71 73 84 98 84 69 89 97 98 100 98 93 95 100 98 67 97
66 65 37 29 18 14 11 18 20 26 25 21 28 54 20 24 23 24 25 30 34 42 65 59 59 62 67 74 81 90 99 92 84 96 99 97 99 98 97 99 94 75 80 100
82 57 82 78 35 19 16 15 20 22 23 35 36 24 24 27 29 31 37 61 64 68 68 66 69 74 76 79 90 85 99 99 100 100 100 99 100 100 99 100 87 64 98 95
76 72 81 82 84 35 36 21 16 21 31 26 26 60 49 31 30 53 63 69 66 69 73 76 79 84 83 86 95 86 99 100 100 100 100 100 100 100 99 100 87 71 98 99
64 72 52 53 52 41 52 45 28 27 28 34 34 38 48 60 60 64 70 69 69 74 78 81 86 94 93 96 89 89 99 100 100 100 100 100 99 100 98 100 99 92 100 98
55 78 51 44 32 35 37 29 27 24 22 23 22 22 42 54 60 66 73 73 78 83 86 89 94 99 100 99 96 99 95 100 99 100 99 99 100 100 100 100 100 98 99 94
66 72 60 48 34 35 42 33 29 26 23 28 35 47 46 67 70 81 83 89 90 92 92 99 100 100 100 100 99 100 89 100 98 100 100 100 100 100 100 100 99 98 100 99
65 64 53 57 42 57 40 36 30 26 44 44 42 50 48 70 87 94 97 93 92 98 99 99 99 99 99 100 99 100 92 100 100 100 100 100 100 100 99 99 98 98 100 99
46 68 65 61 50 38 30 68 84 72 85 67 66 65 68 82 89 96 94 94 99 100 99 99 100 100 100 100 99 100 94 100 100 100 100 100 100 100 99 99 99 99 98 97
41 46 60 59 54 60 93 57 67 64 99 84 74 69 63 74 92 94 92 95 99 100 100 99 99 100 100 100 100 100 97 98 100 100 100 100 100 99 99 99 99 100 100 100
73 73 77 56 52 57 57 51 64 90 99 82 76 76 73 81 88 94 97 96 100 100 99 99 99 98 99 100 100 99 97 96 99 99 100 98 100 100 100 100 100 100 100 100
66 72 84 60 66 75 70 63 87 98 90 80 79 81 84 90 95 98 98 98 99 99 99 99 99 98 99 98 98 100 98 97 97 100 96 100 95 98 100 100 100 100 100 100
73 69 85 96 100 90 91 96 86 79 74 71 72 76 80 82 88 94 98 100 96 98 98 99 98 99 98 99 98 99 98 100 100 100 98 100 100 98 100 99 100 100 100 100
66 59 72 71 97 98 98 99 93 80 72 70 71 74 78 83 83 88 94 99 97 96 96 98 98 98 98 98 98 100 100 100 99 97 98 98 100 98 100 100 99 99 100 100
69 63 94 97 97 92 96 97 98 98 84 73 76 78 77 77 80 84 88 95 100 98 97 98 97 97 97 98 99 98 96 98 98 100 100 100 100 99 100 100 100 100 100 100
71 97 90 96 98 99 98 98 97 99 92 80 76 80 83 82 81 83 88 94 96 100 100 99 97 98 97 97 97 99 96 93 93 96 100 100 100 100 99 100 100 100 100 100

GFSCGP_850_rhum_114.txt.gz
RH
50 28 26 22 26 23 22 21 23 20 16 18 19 17 14 12 14 14 15 15 16 16 16 16 17 17 17 17 18 21 26 39 52 64 67 78 93 96 89 89 94 93 65 68
73 63 20 18 15 20 20 21 22 19 17 25 28 30 18 15 15 15 15 15 16 16 16 16 16 19 20 23 26 26 26 28 39 58 57 68 85 95 96 92 89 91 88 69
89 52 18 19 14 15 18 21 23 23 31 44 32 37 21 16 15 14 14 16 16 17 17 16 16 20 24 31 34 35 35 37 38 39 58 72 81 90 96 97 91 98 98 98
82 57 23 19 17 11 19 14 18 22 35 73 34 40 23 18 17 14 12 12 14 16 15 13 14 22 30 34 36 40 46 46 42 42 47 64 70 74 75 92 96 100 100 100
84 71 27 18 14 10 14 14 17 22 34 48 41 40 29 22 24 22 14 12 12 12 12 12 22 27 30 32 36 44 52 58 54 51 52 63 69 71 86 94 98 98 98 99
70 46 36 15 10 9 11 20 24 28 35 54 40 37 32 25 24 22 13 9 12 18 22 24 27 28 29 30 37 42 50 52 57 61 58 64 73 80 91 94 95 94 100 99
39 40 34 20 15 11 19 27 50 64 56 58 32 35 30 17 14 15 13 12 25 27 27 26 27 28 33 36 40 47 49 53 53 59 65 70 80 90 95 89 96 85 97 99
29 86 54 28 18 17 26 28 50 55 55 43 26 34 25 16 12 11 17 25 27 28 30 29 33 41 48 51 54 56 54 59 61 60 67 70 79 92 97 90 93 80 92 98
65 43 44 34 18 20 27 35 30 41 49 54 30 25 18 13 18 20 24 27 27 27 29 35 40 50 55 58 61 65 63 60 71 61 63 75 76 80 94 88 96 81 92 98
63 82 41 46 20 19 24 25 43 40 52 61 74 29 37 20 26 28 32 23 24 26 35 39 45 52 56 60 66 70 68 71 68 62 63 81 76 78 88 93 99 88 84 97
54 61 51 24 49 37 32 28 28 29 32 38 50 64 37 25 31 54 24 26 48 51 54 54 55 58 62 66 69 74 76 68 75 86 77 85 76 79 93 93 99 93 93 94
60 77 72 32 14 14 18 23 25 40 36 26 33 44 41 37 25 26 58 53 65 64 63 62 66 70 72 74 76 80 76 75 87 96 96 83 80 85 93 99 100 94 91 98
65 82 88 56 38 15 16 14 16 23 25 38 48 32 52 48 63 53 59 60 62 66 66 68 70 75 80 84 85 88 78 79 92 100 100 98 83 89 95 100 100 92 98 98
62 67 96 98 99 71 37 13 12 18 34 31 42 45 44 68 68 62 64 64 68 70 71 74 80 85 90 94 96 96 82 81 95 100 100 98 96 90 92 100 100 94 96 99
52 75 72 56 47 86 88 67 33 18 23 30 61 57 69 80 86 66 64 67 71 74 76 79 87 94 97 99 100 96 86 84 94 98 99 99 99 98 100 100 100 100 98 98
46 77 65 48 27 44 74 70 64 67 50 39 38 45 81 75 65 69 73 76 77 78 82 90 98 99 99 99 99 100 98 90 96 99 99 100 100 99 100 100 99 95 99 99
54 77 67 49 34 31 35 31 30 24 23 29 48 71 73 66 73 79 81 82 84 87 92 99 99 99 100 99 99 100 100 100 98 100 100 99 98 100 100 100 100 98 99 100
55 56 57 64 49 50 58 55 56 46 57 55 58 62 64 77 85 88 87 87 92 98 100 99 99 99 100 99 98 100 100 100 99 100 99 100 100 100 100 100 99 97 100 100
41 55 67 66 60 38 74 64 73 83 94 74 64 66 74 82 88 96 87 90 98 99 99 99 99 100 100 100 100 100 100 100 100 100 100 100 100 100 100 100 99 100 99 99
42 46 56 60 66 66 77 53 48 54 100 100 81 65 66 77 97 95 88 93 98 99 100 100 100 100 100 100 98 100 98 99 100 98 99 100 100 100 100 100 100 100 100 100
62 62 68 58 56 86 76 60 49 77 100 98 97 83 80 84 87 93 92 97 100 99 100 100 100 100 100 100 97 97 98 97 99 100 98 100 100 100 100 100 100 100 99 100
75 84 90 86 70 89 91 62 89 99 100 100 95 78 79 81 86 91 94 100 99 100 100 99 99 98 97 98 98 96 94 98 99 100 99 100 99 100 100 100 100 100 99 100
82 69 79 98 98 99 100 100 100 97 76 72 72 73 74 76 80 89 94 100 99 100 98 99 97 98 98 97 97 96 97 96 98 100 100 98 98 100 100 100 100 100 100 100
64 54 79 80 89 86 100 98 99 98 95 74 70 70 72 75 75 79 86 95 98 95 94 95 98 98 98 97 96 97 97 97 97 100 100 99 98 100 100 100 99 99 100 100
66 66 92 96 82 90 98 98 99 97 99 87 79 78 75 72 75 80 86 90 97 99 97 95 97 98 99 97 97 96 96 97 97 98 100 98 99 98 97 98 98 98 98 98
76 95 90 91 98 99 98 98 98 98 97 89 75 72 80 80 79 81 89 93 95 100 100 100 97 100 100 99 100 98 97 97 97 96 96 96 98 99 99 100 100 100 100 100

GFSCGP_850_rhum_117.txt.gz
RH
38 36 53 50 36 27 26 30 25 25 21 23 23 21 18 18 15 17 17 16 16 16 16 16 16 16 15 14 14 15 27 44 50 59 70 70 48 52 87 85 77 72 88 89
49 54 33 32 50 41 28 28 31 24 21 25 24 32 20 24 19 15 15 16 14 16 17 16 15 15 16 18 20 26 43 53 55 58 62 60 47 45 64 83 90 83 81 91
57 61 33 34 54 64 28 27 27 30 41 44 40 42 39 28 20 17 14 14 14 16 16 17 17 18 20 21 22 24 33 41 43 38 44 61 69 74 75 99 98 95 90 92
70 51 65 54 51 58 31 21 20 23 29 67 43 56 40 33 25 21 18 16 16 16 16 17 19 21 21 24 24 27 32 35 42 55 60 43 46 47 58 74 96 98 92 90
64 62 91 100 67 42 27 22 19 20 40 70 58 68 46 30 28 24 22 19 17 12 18 16 20 25 29 33 36 38 38 38 39 43 52 59 47 50 65 65 89 99 92 89
66 53 64 74 53 34 20 22 23 42 64 94 55 55 48 33 27 24 21 19 17 15 16 24 29 34 41 44 46 49 49 46 48 52 59 60 67 59 63 74 77 87 84 87
33 37 39 51 56 41 21 22 65 91 90 79 41 48 42 28 22 21 20 19 19 19 24 32 36 42 48 50 52 51 49 46 48 52 57 69 73 67 75 70 76 82 86 87
63 84 61 48 58 36 25 45 79 91 78 58 32 52 40 26 22 20 18 29 29 28 39 43 45 46 47 45 44 43 45 43 48 52 46 55 71 84 78 88 81 86 86 84
80 66 54 48 55 51 36 42 39 61 53 69 43 30 24 23 25 26 30 31 33 47 48 51 51 51 49 47 45 37 30 32 39 46 45 42 49 72 88 79 78 83 93 83
68 78 58 71 64 30 29 29 64 77 88 86 78 43 42 38 43 52 74 59 58 62 62 64 63 59 58 56 53 44 46 50 51 55 51 52 54 61 92 87 80 75 92 100
66 75 62 59 61 45 40 38 48 73 53 66 95 87 45 49 41 68 80 86 80 69 70 68 68 66 64 63 60 63 66 59 58 61 56 66 71 76 72 92 86 75 97 95
65 85 90 55 47 33 43 49 38 57 60 46 69 89 61 71 67 71 75 77 78 73 72 69 71 70 66 66 68 69 70 71 67 66 64 82 98 80 74 92 85 78 98 100
72 84 94 70 53 54 59 39 30 36 44 38 62 81 71 76 81 70 72 76 76 77 77 81 73 74 76 68 65 70 71 70 71 68 70 92 97 100 100 92 80 83 98 100
58 76 97 95 92 98 87 66 47 32 45 43 59 78 93 84 82 83 75 77 76 78 84 87 86 86 82 78 79 81 78 75 72 74 80 91 99 99 96 96 82 88 98 100
59 83 73 68 60 99 97 69 62 58 45 39 65 85 95 94 94 88 80 76 80 85 90 95 97 93 88 85 84 83 80 78 76 80 90 94 100 100 98 98 89 98 99 100
57 80 76 72 49 57 62 68 58 58 57 55 67 95 82 88 90 85 81 81 87 91 94 92 99 99 99 98 91 85 86 89 91 94 100 99 100 100 100 94 95 100 100 96
68 75 82 76 55 55 95 98 87 86 90 63 86 95 78 84 82 86 85 89 93 99 99 99 100 100 99 94 94 93 95 93 96 98 98 100 100 100 100 99 96 100 100 90
72 66 72 86 71 78 87 58 68 93 96 95 92 94 91 91 86 88 91 95 100 99 99 99 97 95 96 95 93 93 95 96 98 98 99 100 100 100 100 98 99 100 95 99
58 63 88 87 85 72 69 75 81 90 100 100 97 85 83 88 88 91 94 99 100 100 100 100 100 97 95 94 93 93 92 92 95 99 100 99 100 100 100 100 100 100 98 98
58 67 81 85 78 96 91 82 70 69 99 98 98 100 89 87 97 97 98 99 100 100 99 99 98 97 94 93 96 95 97 96 98 99 100 99 100 100 100 100 100 100 100 99
88 85 90 92 86 95 92 82 68 81 100 96 99 100 85 90 93 96 100 99 100 98 95 96 96 96 97 98 97 97 98 100 100 100 100 100 100 100 100 100 100 100 100 100
92 92 100 90 87 93 98 79 93 99 100 100 100 98 83 85 94 96 100 97 96 95 93 94 96 96 97 98 98 95 95 100 100 98 99 99 100 98 100 100 100 100 100 100
97 82 99 97 97 99 99 99 100 100 95 85 74 75 76 77 88 94 99 94 95 95 94 95 96 96 97 100 100 100 100 97 98 98 98 99 100 100 99 100 100 100 100 100
75 72 93 96 90 95 99 98 99 98 98 95 90 78 74 77 82 89 95 98 95 94 94 95 96 94 94 98 98 100 99 97 95 94 98 98 99 100 100 99 100 99 100 100
88 81 98 93 91 99 99 98 99 99 97 97 95 90 87 82 85 90 92 98 95 96 96 97 97 96 96 96 95 92 93 98 98 95 96 97 97 98 98 98 99 100 100 99
86 92 86 92 96 98 99 99 98 95 99 98 91 87 86 88 88 92 95 97 97 96 98 100 97 96 96 93 93 93 97 95 94 95 96 96 96 96 96 96 96 97 97 98

GFSCGP_850_rhum_123.txt.gz
RH
46 58 66 57 46 38 40 46 50 45 36 39 37 31 26 22 22 18 21 21 22 19 18 17 16 16 15 15 19 36 29 20 31 47 54 54 46 47 53 54 60 70 73 74
53 70 46 46 48 51 52 55 54 42 34 41 46 44 29 23 24 18 19 20 22 20 18 18 16 16 16 16 16 16 16 15 18 26 34 50 52 49 52 59 60 60 80 81
59 48 43 45 50 58 58 65 61 58 48 39 49 54 35 24 24 22 17 20 19 22 19 18 17 17 16 16 16 16 16 16 18 23 42 61 71 66 65 66 61 62 70 80
65 50 50 50 54 48 71 48 54 91 91 85 44 65 45 38 39 34 20 20 19 18 18 17 19 19 18 19 18 18 21 25 33 49 78 75 74 60 59 60 55 56 54 73
69 60 67 78 68 51 72 58 84 74 71 62 64 70 55 44 49 39 31 22 20 20 18 24 29 39 37 42 37 49 60 73 82 81 98 82 68 64 68 62 51 54 59 67
60 46 48 53 46 54 61 71 77 68 73 94 64 64 70 53 42 36 32 27 59 59 54 58 62 66 70 76 87 89 86 81 89 88 84 72 61 72 70 62 75 77 69 65
62 65 50 48 74 60 71 70 92 92 97 84 45 57 51 41 47 47 49 64 68 73 76 77 66 59 56 54 52 54 56 55 57 60 62 65 66 65 62 67 78 81 86 88
91 85 57 49 69 71 82 64 74 87 90 75 55 65 65 57 34 54 58 71 79 83 83 86 79 60 52 46 43 40 40 40 41 44 45 46 48 51 55 59 61 69 79 84
81 78 45 48 48 69 68 90 49 56 85 94 76 60 75 75 74 78 79 85 88 89 88 87 80 72 62 52 46 42 37 35 30 27 28 27 28 29 28 29 36 43 61 70
75 88 53 52 64 68 77 55 66 76 96 83 86 92 91 92 86 84 86 87 93 93 90 85 72 70 63 58 54 50 42 39 37 34 34 39 38 36 35 32 30 33 38 47
70 88 67 58 96 95 85 92 84 78 93 96 96 94 80 92 94 95 89 92 95 98 97 90 80 71 70 62 56 48 39 34 30 31 35 39 38 41 39 36 31 32 43 45
56 85 90 64 59 57 67 93 89 99 88 94 97 99 97 93 89 89 92 92 97 100 99 93 81 70 62 62 62 59 48 39 36 36 35 40 39 39 37 36 44 47 52 57
61 80 97 67 58 54 82 72 85 92 97 94 97 98 97 97 96 98 97 100 100 100 100 97 85 81 84 81 76 72 67 63 59 55 55 53 48 47 45 43 48 56 90 94
58 80 87 95 82 93 98 83 76 86 95 79 97 99 100 100 100 100 99 100 100 100 100 99 96 92 85 80 75 70 62 64 63 62 58 54 50 52 49 50 64 80 99 100
66 88 76 70 65 94 100 96 93 90 90 92 100 99 100 100 100 100 100 100 96 99 98 92 93 84 85 78 79 79 77 67 67 66 64 65 64 64 66 80 87 88 100 98
67 85 80 77 63 88 80 81 82 79 93 95 95 98 100 98 91 94 97 99 100 100 100 99 100 98 97 88 86 84 78 76 76 78 78 76 76 77 81 88 98 99 94 100
76 86 88 79 63 98 84 98 97 94 94 98 100 100 100 95 92 98 99 100 100 100 100 99 100 100 97 93 92 89 86 84 84 83 83 82 80 82 84 86 94 99 100 100
76 81 84 94 81 89 97 94 100 99 98 99 100 100 99 96 100 100 100 100 100 100 100 100 100 96 92 90 87 86 85 85 87 88 88 89 88 86 91 88 91 99 100 99
70 81 93 93 91 93 70 79 96 99 99 95 95 98 98 98 91 99 100 100 100 100 100 100 96 92 91 90 91 92 88 88 87 87 88 94 94 93 96 93 89 95 98 98
74 79 86 91 89 95 92 79 81 92 97 96 94 96 89 84 92 94 100 100 100 98 98 97 94 92 90 89 90 90 89 90 89 90 92 94 93 96 100 99 92 92 96 99
90 88 97 94 95 92 94 83 86 86 100 99 97 100 91 93 99 100 98 95 92 96 97 97 96 94 94 92 92 89 89 91 92 91 93 93 93 98 100 100 99 96 99 100
88 89 88 86 85 90 96 80 93 99 98 99 94 98 99 100 99 95 95 95 94 91 92 92 93 94 94 93 90 88 88 92 93 92 93 95 96 98 100 100 99 100 100 100
99 96 86 96 97 97 99 99 98 99 99 99 99 96 94 99 100 98 94 92 92 94 92 93 94 92 89 87 89 89 92 93 91 89 91 94 96 98 98 96 99 100 100 100
88 85 92 95 93 92 99 98 97 99 100 97 100 97 97 98 98 96 96 95 91 91 93 94 94 93 92 92 94 95 94 91 89 88 92 94 95 92 93 94 97 98 100 100
92 85 90 88 93 98 98 96 100 100 98 98 92 96 100 97 96 96 95 96 95 91 93 96 96 98 97 95 96 97 96 92 89 90 90 93 98 95 93 95 95 96 97 98
85 86 89 99 98 98 98 98 97 98 100 98 99 96 97 96 96 96 96 97 100 93 92 94 96 97 97 93 95 94 97 96 92 91 94 95 98 98 95 95 96 96 96 97

GFSCGP_850_rhum_129.txt.gz
RH
50 49 44 37 42 37 41 43 40 33 29 37 40 38 33 32 34 33 32 32 31 30 26 24 19 8 15 23 27 21 49 50 30 34 30 28 22 24 26 24 24 24 26 26
48 54 44 45 45 48 48 51 48 40 35 42 43 43 36 35 35 34 36 36 36 34 32 27 25 14 9 20 41 27 31 54 49 32 26 27 26 24 26 28 27 28 32 34
55 44 43 46 46 52 50 56 52 53 45 47 50 43 25 22 24 24 26 33 35 33 33 30 25 18 9 18 24 27 25 33 54 49 47 46 45 47 41 37 34 32 34 40
60 50 48 48 50 47 63 43 46 51 70 75 52 77 34 20 24 24 24 27 30 29 27 28 27 20 19 21 22 23 37 52 59 56 56 55 48 49 48 50 47 45 43 49
54 58 63 74 60 50 57 48 52 56 71 83 50 71 30 25 30 30 30 38 70 65 35 26 25 22 38 28 27 27 48 79 76 67 62 64 65 65 64 64 74 69 58 68
56 51 49 53 49 52 45 59 63 68 86 85 54 52 37 44 96 92 75 91 97 81 49 65 89 93 71 58 45 32 35 75 85 91 86 92 76 79 85 76 71 73 69 69
51 52 53 50 59 53 64 70 69 59 70 44 37 47 39 94 95 97 94 98 100 100 100 100 100 100 100 98 85 86 67 71 90 99 99 100 99 96 100 86 93 78 74 77
56 32 52 54 58 56 57 84 78 87 60 55 43 56 70 70 97 100 100 100 100 100 100 100 100 100 100 100 99 100 95 98 100 99 100 100 100 97 99 92 92 76 68 53
60 52 44 36 50 58 97 94 66 91 63 77 54 66 73 61 86 99 99 100 100 100 100 100 100 99 100 90 76 76 76 78 85 91 90 90 94 93 93 91 80 72 58 51
52 72 44 48 57 63 72 68 89 85 90 78 57 86 88 93 95 96 99 98 100 100 100 100 100 100 99 82 75 70 60 60 54 50 48 46 43 44 45 46 51 51 58 62
53 64 53 51 67 57 69 64 75 87 88 91 86 93 100 98 98 98 98 99 100 100 100 100 100 100 99 86 75 69 65 64 55 53 43 36 41 32 27 31 29 26 25 25
53 66 73 51 44 49 53 65 79 93 80 78 86 96 100 100 100 98 98 99 99 98 98 99 100 100 100 100 96 84 73 66 64 63 56 47 39 35 33 29 27 27 26 26
58 75 86 42 55 50 72 67 90 96 100 97 94 94 100 99 97 98 98 99 98 97 98 98 96 98 99 100 100 99 96 80 71 68 64 56 49 45 39 38 40 40 40 39
64 72 77 76 69 89 85 71 82 84 94 94 95 94 93 96 97 96 97 99 98 98 98 97 96 98 95 97 99 94 73 69 66 61 62 62 49 44 44 46 43 42 41 39
55 72 72 66 62 89 97 81 87 92 89 81 93 91 97 98 97 98 99 98 98 99 98 97 97 98 100 93 84 84 80 72 74 73 71 66 56 54 51 46 46 45 45 47
64 73 73 68 70 92 95 86 71 90 86 90 96 90 100 97 88 88 96 99 99 100 100 100 100 99 95 90 90 87 87 83 78 73 73 63 61 61 55 54 57 57 56 64
70 76 78 71 63 97 93 95 96 91 89 92 89 98 99 85 86 97 96 99 100 100 99 98 99 98 98 89 93 87 80 74 74 71 74 71 68 64 60 56 54 56 60 75
72 77 81 75 77 91 98 73 100 98 97 97 94 94 98 95 98 98 100 100 100 99 96 96 97 98 99 93 89 90 88 79 80 79 78 73 68 66 64 61 66 77 86 92
67 74 85 85 80 94 81 81 88 91 93 86 94 86 86 99 97 92 100 100 100 100 100 95 98 100 100 95 94 96 82 81 81 90 84 80 74 76 74 76 81 93 100 99
74 74 81 77 85 86 89 71 82 98 93 94 91 91 90 78 77 86 98 99 96 94 94 95 96 100 96 92 88 83 81 83 86 89 86 83 79 78 78 78 85 91 98 99
74 70 80 78 83 90 85 80 82 91 96 97 99 100 97 83 95 98 98 100 97 96 95 94 95 96 97 92 87 86 84 86 91 90 86 85 82 78 79 78 80 86 91 97
73 70 72 69 81 82 86 67 78 99 99 99 99 99 99 99 98 99 100 100 93 94 95 94 93 93 92 89 88 89 87 90 92 92 88 86 84 81 79 79 78 78 81 88
89 74 72 74 84 94 98 96 99 99 97 100 100 100 100 100 100 100 100 100 95 92 94 96 95 92 92 90 94 93 91 88 87 86 86 87 88 89 86 84 82 80 80 81
80 82 86 83 91 92 100 100 98 98 100 100 99 99 99 100 100 100 100 100 100 96 94 94 92 92 91 90 91 92 90 89 89 86 87 89 89 89 88 90 93 95 92 86
78 78 88 91 96 98 100 94 90 98 97 100 97 99 100 100 100 98 100 100 100 100 95 93 92 92 91 91 90 91 89 89 91 90 89 92 93 92 92 94 98 98 100 100
82 84 86 81 97 90 98 99 93 94 92 98 100 100 94 94 99 100 100 100 98 95 94 91 91 91 91 90 91 90 90 89 90 90 90 92 92 90 90 93 97 100 95 97

GFSCGP_850_rhum_132.txt.gz
RH
36 26 20 20 24 24 26 25 21 17 18 30 30 26 23 19 17 16 18 18 19 19 18 19 20 21 23 21 18 19 32 77 96 82 44 41 53 43 82 84 46 45 31 42
33 27 27 29 30 32 29 29 26 21 24 30 30 32 23 16 13 15 19 23 21 19 20 21 22 22 25 24 23 19 28 66 88 87 57 29 24 35 41 46 34 29 28 34
35 28 35 36 30 34 30 31 30 32 31 30 34 24 12 15 14 34 48 52 50 45 36 33 25 24 23 27 27 24 22 52 81 85 91 56 50 78 86 83 76 80 50 30
40 36 37 35 37 34 38 28 34 38 44 46 35 52 24 19 40 56 53 71 83 84 71 59 51 34 28 24 26 25 24 45 74 87 86 74 46 64 64 57 80 88 90 80
39 39 45 60 43 38 37 36 42 44 47 57 35 43 19 46 81 70 61 79 98 99 95 73 41 47 35 23 25 23 25 38 64 87 87 85 55 49 67 79 86 93 69 85
33 32 36 36 36 37 36 44 40 43 52 66 32 32 34 75 96 85 87 81 97 100 100 99 98 80 66 65 54 46 42 39 61 87 95 95 82 81 83 99 95 96 84 64
24 33 37 42 42 36 46 47 40 44 48 34 25 32 78 58 71 94 95 97 99 99 99 100 98 98 100 99 99 100 92 85 91 98 98 100 100 99 100 99 97 84 80 84
24 39 37 39 40 55 52 54 54 69 44 46 32 35 74 47 51 75 93 97 99 99 99 99 100 100 100 100 100 99 100 100 100 100 100 100 100 72 86 99 74 71 73 99
31 30 25 26 39 48 86 64 56 76 50 62 32 44 55 46 51 71 96 91 99 99 98 99 98 99 99 100 100 100 100 100 100 100 100 100 98 100 99 96 92 99 99 93
39 45 30 30 45 47 50 44 58 71 80 65 35 76 79 80 78 75 96 97 98 99 98 97 97 99 100 99 100 100 98 89 90 92 93 90 93 94 95 99 100 99 93 79
40 48 35 34 45 44 41 51 55 56 59 65 62 89 100 99 98 95 95 98 98 98 98 97 98 98 99 100 100 100 95 71 66 84 69 62 63 63 62 61 63 71 76 74
46 51 52 35 31 37 44 54 61 79 67 60 71 96 95 100 99 98 97 98 98 97 98 97 97 98 98 100 100 98 98 80 65 65 55 54 53 48 42 39 38 36 36 35
48 54 60 47 51 42 53 50 58 67 81 96 92 92 94 98 97 97 98 98 98 98 96 97 96 97 99 99 100 99 96 90 76 67 63 54 52 50 47 44 43 40 36 37
54 50 66 59 71 71 71 56 59 62 87 90 88 91 91 96 96 95 97 99 98 98 99 97 96 97 98 98 98 99 92 88 82 73 71 66 51 42 36 32 32 37 40 38
46 53 51 48 44 71 91 62 71 87 79 78 90 87 97 97 96 98 98 98 98 98 96 96 96 96 97 98 98 98 97 93 96 89 72 71 58 52 53 45 42 45 46 44
50 57 53 54 53 76 85 60 51 65 84 72 90 80 98 92 81 74 77 97 98 98 99 97 96 97 99 100 94 94 86 93 90 73 68 70 58 53 55 49 47 52 54 52
59 60 58 48 46 99 92 96 83 85 81 83 76 90 89 72 71 79 82 84 91 98 100 100 100 100 100 100 100 92 82 87 86 79 84 72 63 55 51 52 56 67 68 81
60 64 60 54 55 85 96 75 94 92 85 92 91 91 77 87 81 78 88 89 90 96 100 100 100 100 100 100 99 100 100 100 96 99 92 78 74 73 64 65 71 78 88 93
55 62 62 63 52 91 78 61 73 88 87 71 72 70 66 80 82 75 89 90 90 96 100 100 100 95 88 89 99 96 91 92 85 82 89 80 79 85 75 79 84 87 91 93
58 62 64 56 58 63 74 58 72 74 90 74 73 77 70 57 64 68 97 91 88 94 100 100 100 100 93 93 92 83 86 92 88 86 82 76 75 74 74 82 82 83 91 97
65 63 65 59 56 76 64 57 81 96 96 79 79 86 80 73 85 96 94 89 93 99 100 100 100 100 96 94 91 86 86 90 90 85 82 81 79 78 77 78 79 75 76 95
63 61 65 59 62 75 65 54 69 90 85 83 82 89 91 94 94 93 92 92 98 100 100 100 100 100 99 91 87 88 86 89 86 85 82 82 80 80 79 79 79 82 83 83
76 61 60 65 82 76 75 83 92 87 85 90 90 89 88 85 86 88 90 92 99 100 100 100 100 100 100 99 100 98 96 90 86 84 85 84 85 83 83 84 86 94 90 85
70 67 70 70 79 75 80 82 85 84 92 95 92 88 84 85 85 83 86 90 98 100 100 100 98 99 98 96 97 92 88 93 89 85 82 80 81 84 84 84 88 91 90 92
58 63 84 88 88 85 83 88 87 95 97 98 97 93 88 84 86 86 89 92 93 99 100 100 100 100 100 100 100 100 96 94 92 96 93 84 91 85 87 95 93 93 96 99
60 76 77 85 85 86 90 100 96 97 95 94 93 92 95 91 90 89 91 95 98 100 100 100 100 100 100 100 96 95 99 96 88 94 92 94 95 93 93 85 93 100 94 94

GFSCGP_850_rhum_135.txt.gz
RH
21 19 15 16 18 17 16 15 14 11 11 17 18 17 14 12 13 28 31 35 39 44 48 48 47 25 19 21 20 21 18 16 30 78 88 99 92 88 81 86 82 91 76 97
22 24 20 21 19 21 20 19 16 14 16 16 18 19 16 13 32 35 37 41 46 51 57 59 60 56 50 40 25 22 23 22 19 66 83 90 94 86 66 66 83 87 90 75
22 17 25 24 20 21 20 20 19 20 18 18 20 23 11 19 36 40 42 47 48 55 68 73 75 72 70 60 43 26 25 25 21 24 78 85 94 85 88 71 79 90 90 82
24 25 24 23 23 22 26 18 24 24 28 32 21 34 18 29 37 40 48 57 59 63 76 88 97 95 82 72 46 36 25 25 25 22 66 80 90 89 86 69 51 82 73 52
31 29 30 39 30 26 26 24 29 31 35 33 28 31 20 36 44 45 53 71 76 78 77 88 99 100 97 92 78 49 30 25 27 25 40 75 85 87 74 70 48 72 86 78
21 20 24 24 26 27 27 34 31 29 34 45 25 23 34 50 50 54 60 74 82 85 87 88 100 99 100 100 83 69 59 27 27 25 35 76 75 82 70 71 66 72 84 83
18 22 25 30 30 28 32 34 34 35 46 31 20 25 62 44 42 55 61 72 88 89 94 98 100 90 99 99 100 96 91 79 51 41 41 78 72 85 70 68 69 80 90 95
16 36 26 28 35 39 42 38 42 52 33 33 24 39 58 40 42 56 64 71 87 94 98 100 100 85 90 99 100 99 99 100 99 52 66 99 80 93 76 69 80 92 82 71
19 24 20 19 26 35 56 56 34 54 38 42 28 47 41 45 47 59 75 80 94 97 99 100 100 89 94 98 99 100 100 100 100 98 96 100 95 100 100 98 99 100 92 83
26 30 17 22 29 32 38 31 48 54 69 56 28 66 73 80 73 69 94 94 96 98 99 97 96 96 96 96 99 100 100 100 100 99 99 98 100 100 100 100 99 99 79 100
28 35 29 24 33 28 29 48 45 41 44 55 59 87 96 86 80 87 81 99 99 97 97 97 96 97 96 97 96 99 100 100 100 96 97 98 100 100 100 100 100 91 98 100
34 38 38 25 24 27 32 40 42 84 54 82 55 95 75 78 80 77 85 96 96 97 97 97 97 97 96 98 96 99 100 100 100 98 85 100 90 99 86 84 88 95 90 88
38 44 50 40 36 31 41 45 41 48 61 69 88 94 71 77 78 78 87 97 98 98 97 96 96 96 97 97 97 98 100 99 84 88 91 75 88 99 73 60 57 72 61 48
47 40 53 46 65 53 48 43 43 53 87 94 87 94 98 100 99 96 95 96 98 97 97 99 97 97 97 97 97 98 98 97 98 93 77 74 71 76 62 54 62 96 60 46
45 43 38 34 30 45 63 53 55 74 82 69 81 80 91 96 96 83 80 90 93 97 96 97 99 98 98 97 96 96 98 100 100 97 88 91 95 91 79 83 81 55 45 43
41 48 39 40 35 68 67 55 45 53 62 80 69 81 67 75 60 61 64 72 82 90 95 98 100 100 100 100 100 100 98 99 92 94 92 94 94 92 84 91 98 69 94 72
48 45 44 47 40 85 89 83 72 66 66 62 72 78 71 63 58 62 65 68 70 78 88 95 100 100 100 100 100 100 100 100 86 85 92 76 82 66 62 56 50 49 59 79
48 50 50 43 62 86 89 69 65 92 79 87 78 79 67 64 64 66 70 70 72 76 84 92 99 100 99 100 100 100 100 99 88 88 95 95 98 89 71 59 61 65 75 78
40 45 57 52 44 82 62 49 65 77 84 60 66 60 55 52 73 84 75 74 74 78 85 91 95 100 100 99 100 90 87 84 82 90 91 94 98 96 82 90 85 98 87 90
43 46 52 47 47 63 70 47 57 59 90 63 63 64 62 52 66 65 80 75 76 82 90 94 94 100 100 100 99 99 89 81 82 85 88 88 77 81 80 89 87 99 93 91
60 57 60 48 46 68 48 48 63 83 92 67 66 76 71 70 80 83 79 75 82 91 99 100 99 100 100 100 100 100 100 98 96 89 86 86 85 85 90 90 84 78 81 87
52 54 58 46 48 64 53 47 67 84 74 70 72 80 84 82 79 76 75 77 90 100 100 100 100 100 100 100 100 100 100 100 96 88 84 84 85 84 82 86 84 82 80 80
62 51 61 56 84 61 63 72 72 74 75 79 76 73 73 74 69 70 74 77 96 100 100 100 100 100 100 100 100 100 100 100 100 96 90 84 89 95 97 96 86 85 81 83
56 52 60 62 60 56 63 69 73 76 80 76 74 70 68 69 70 68 71 74 86 96 95 99 100 100 100 100 100 100 100 100 100 100 100 97 98 92 93 100 96 94 92 92
46 51 69 79 64 64 66 72 85 87 92 82 76 74 72 69 70 70 72 76 80 86 93 96 99 100 100 100 100 100 100 100 100 100 100 100 100 100 100 100 100 100 100 100
45 71 70 82 72 73 72 81 81 85 79 80 80 77 77 75 72 72 74 78 80 84 89 95 100 100 100 100 100 92 97 100 100 100 100 100 100 100 100 100 100 100 100 100

GFSCGP_850_rhum_138.txt.gz
RH
19 23 19 15 17 17 16 13 12 10 8 13 15 14 11 22 30 34 36 40 42 45 48 54 61 63 59 55 62 66 57 38 20 19 25 73 83 72 84 83 85 83 89 81
20 22 18 18 16 16 16 17 16 12 11 13 14 14 19 31 34 36 43 48 52 56 61 62 64 70 78 71 79 81 65 53 46 21 24 56 75 82 73 91 82 74 92 79
19 17 20 21 17 16 16 18 17 17 15 14 15 16 34 31 29 38 44 53 61 65 68 70 70 74 86 93 88 92 75 68 54 29 23 23 68 77 80 80 94 82 78 74
19 18 21 18 18 16 22 14 19 20 22 28 18 30 18 30 34 39 46 55 66 72 74 77 79 82 86 98 92 86 73 72 60 33 26 26 26 88 77 73 95 94 82 67
25 25 26 28 24 21 23 19 23 24 27 32 28 26 30 34 46 49 50 58 70 76 81 87 88 92 90 97 92 98 80 61 61 53 30 26 28 33 85 70 86 86 91 90
19 17 18 19 20 21 21 27 28 28 32 48 29 25 53 49 54 56 57 66 76 80 87 93 98 98 98 90 82 96 98 70 63 58 46 36 31 28 53 83 78 84 93 96
19 17 16 21 26 21 28 32 38 34 50 51 24 29 53 46 49 58 64 73 83 86 94 93 92 96 98 98 82 88 100 99 96 89 73 39 34 43 30 87 73 84 94 100
21 29 22 23 29 29 34 33 40 53 39 38 23 45 66 44 48 60 68 77 86 90 97 96 97 97 98 100 100 93 93 97 98 98 99 73 63 47 49 82 71 85 84 91
18 20 20 24 17 27 39 45 36 42 37 48 32 62 51 49 54 62 76 84 96 96 96 97 98 99 99 100 99 100 93 96 100 98 100 97 88 78 85 90 87 85 81 92
21 26 19 15 18 22 30 25 38 48 60 46 36 71 75 76 72 72 89 95 95 95 94 98 100 97 99 99 100 99 94 91 99 99 100 100 100 92 82 96 89 100 86 96
22 28 24 20 24 24 38 40 43 36 41 48 55 79 83 75 75 78 76 98 98 94 96 99 100 99 100 94 93 98 92 95 97 100 100 100 99 99 90 96 95 95 100 99
28 29 35 26 22 21 24 33 33 55 46 58 71 95 67 65 69 70 78 87 94 97 97 100 100 94 95 94 93 96 93 96 97 99 100 100 100 88 76 78 100 100 99 100
34 42 50 30 27 24 31 38 33 38 44 63 86 93 76 77 73 74 80 90 89 97 93 96 96 96 96 94 96 97 96 97 97 98 100 99 98 98 82 85 99 90 79 100
35 41 48 60 63 48 57 44 39 44 62 76 90 96 94 100 100 100 97 90 88 91 93 94 94 98 99 98 96 97 96 97 97 97 97 100 93 100 93 97 95 95 87 90
46 48 37 30 25 40 45 40 49 55 56 70 90 82 86 94 90 66 65 71 79 82 88 92 94 99 100 100 96 94 100 96 97 97 99 100 98 99 92 86 85 90 83 89
42 54 34 36 29 63 56 43 39 48 54 62 85 87 64 64 57 54 58 62 69 74 81 86 93 98 99 100 100 100 95 94 99 95 100 99 98 95 98 98 88 80 78 93
46 53 41 50 44 72 80 77 63 61 61 67 72 73 64 59 55 58 62 62 65 70 78 84 91 100 100 100 100 100 100 99 99 85 91 88 88 91 93 94 93 94 95 99
43 43 43 66 64 73 86 60 61 89 78 86 72 76 65 54 61 63 66 66 68 73 80 86 91 99 100 100 100 100 100 100 98 100 99 87 92 86 91 87 93 95 99 84
38 41 56 58 55 74 57 56 62 64 74 57 59 57 54 49 64 87 70 68 71 78 86 90 93 99 100 100 100 100 93 100 100 100 100 100 98 89 81 87 90 85 96 93
35 42 52 50 52 62 62 41 46 50 85 55 57 62 62 55 65 78 75 70 76 86 95 96 96 100 100 100 100 100 100 98 100 100 100 100 100 95 85 87 81 84 92 89
62 57 63 56 50 68 43 46 54 74 87 62 65 71 68 70 78 76 73 72 86 97 100 100 100 100 100 100 100 100 100 100 100 100 100 100 100 99 98 88 85 78 75 72
57 58 60 53 49 81 43 54 66 83 68 66 72 78 76 76 71 70 70 77 90 100 100 100 100 100 100 100 100 100 100 100 100 100 100 100 100 100 100 94 92 82 76 74
67 50 67 65 80 59 66 69 68 65 70 69 69 69 71 67 64 66 69 77 97 96 99 100 100 100 100 100 100 100 100 100 100 100 100 100 94 94 100 98 84 80 78 79
54 46 69 61 55 55 63 66 68 71 69 66 65 64 64 67 65 65 66 71 91 88 97 93 99 100 100 100 100 100 100 100 100 100 100 99 100 100 100 100 92 88 89 90
43 48 69 66 58 59 61 71 75 78 75 69 68 68 66 64 65 65 68 71 76 83 94 89 95 100 100 100 99 98 100 100 100 100 100 100 100 100 100 98 100 96 97 95
44 68 73 81 63 65 69 79 80 79 76 75 72 70 71 68 67 67 71 75 75 79 84 98 98 100 100 100 86 83 100 100 100 100 100 100 100 99 99 99 96 96 97 96

GFSCGP_850_rhum_141.txt.gz
RH
23 37 39 28 22 19 18 18 17 16 12 15 16 17 40 40 46 51 56 62 66 66 66 55 45 41 38 36 39 41 43 44 51 32 38 28 22 23 46 70 80 79 85 86
28 35 26 20 18 18 19 22 24 19 15 17 18 22 43 41 46 52 58 66 70 74 75 73 67 60 57 56 52 51 55 60 57 61 55 57 47 32 25 56 71 82 82 83
32 27 22 23 24 21 18 23 24 22 20 19 20 35 43 42 46 52 60 71 75 80 82 77 70 63 62 68 74 65 64 71 72 64 64 55 46 40 25 42 75 73 84 83
26 18 20 23 23 19 25 19 22 24 29 39 26 49 44 47 54 55 64 76 82 84 87 81 74 72 78 76 71 71 69 79 85 79 65 68 66 50 36 26 24 64 77 85
38 26 28 32 26 20 29 25 28 30 36 38 37 51 55 56 67 67 69 81 84 86 90 81 83 91 79 74 76 78 74 79 91 99 92 72 69 55 43 38 34 30 61 82
27 20 23 26 21 23 22 29 34 36 43 78 44 46 74 74 76 73 73 85 88 90 94 84 90 87 81 75 80 87 88 89 99 100 100 94 92 65 53 42 48 29 33 80
26 26 19 17 28 26 28 40 70 67 78 72 31 57 73 68 69 75 79 89 94 94 91 92 91 90 85 78 84 87 87 89 98 100 100 99 96 84 67 57 47 47 59 46
34 48 22 26 36 33 36 40 63 65 78 70 40 78 77 59 66 76 79 89 95 98 92 84 92 87 85 87 92 91 89 96 91 98 100 100 100 98 90 77 45 42 40 62
32 34 21 25 22 26 42 55 40 50 50 79 73 72 63 59 63 67 78 88 93 99 100 86 93 90 87 91 95 97 99 98 92 97 99 100 100 98 98 87 62 48 53 52
32 43 29 23 17 21 32 30 50 63 87 72 76 85 91 81 74 68 82 88 92 98 100 91 93 92 90 96 97 97 98 98 98 98 94 100 99 98 100 97 85 76 73 55
26 34 33 28 32 30 37 48 48 51 62 79 91 97 88 79 74 76 73 78 85 97 100 99 96 93 92 96 96 99 97 97 98 97 96 98 100 98 100 90 98 100 82 60
34 43 45 29 23 22 33 51 46 79 65 75 85 97 74 80 75 76 84 85 90 92 94 99 96 95 88 94 92 98 97 97 99 98 98 96 95 98 100 88 99 100 92 83
40 53 69 45 32 26 32 40 40 51 58 71 92 96 88 91 85 88 87 83 80 84 91 97 95 95 94 93 94 99 98 97 95 95 94 97 98 99 100 93 93 87 92 94
38 50 66 76 68 59 56 43 43 50 81 86 93 96 97 97 97 99 80 79 78 82 82 92 93 98 97 95 98 98 100 96 95 96 96 97 97 99 99 100 95 92 89 92
53 65 46 40 43 47 46 47 57 56 57 73 94 89 88 97 86 76 66 70 73 79 83 88 89 93 100 100 100 95 93 95 94 96 96 96 97 97 98 100 98 91 98 100
48 66 47 47 35 63 58 44 53 55 57 74 86 80 67 64 60 62 63 67 73 80 86 92 98 91 100 100 100 100 99 98 99 100 96 96 97 98 97 100 94 94 93 98
61 68 55 58 55 70 76 73 69 72 72 72 82 85 67 58 59 66 67 69 75 83 89 95 100 94 100 100 100 100 100 100 100 100 100 96 98 96 100 99 95 88 89 92
62 62 60 87 73 84 75 74 70 85 86 90 85 83 69 67 68 70 70 73 82 88 93 98 99 94 100 100 100 100 100 100 100 100 100 100 100 94 93 87 82 75 81 90
45 56 73 96 90 80 70 65 76 76 87 76 74 58 59 66 80 83 72 77 82 86 93 96 100 96 100 100 100 100 100 100 100 100 100 100 100 94 80 77 81 82 85 80
43 51 71 70 72 92 68 55 52 54 95 56 55 61 62 66 92 90 75 80 81 82 99 100 99 99 100 100 100 99 100 99 100 100 100 100 98 84 82 79 78 80 81 80
69 73 76 79 84 75 51 53 52 86 86 68 69 69 75 85 78 74 72 80 79 77 99 100 100 100 100 100 94 98 100 100 100 100 98 97 100 100 80 72 71 71 73 74
78 81 87 78 80 95 53 58 74 80 69 70 70 74 74 71 70 69 74 82 80 80 90 90 96 100 100 91 89 94 100 100 100 100 98 94 92 96 99 80 66 66 73 71
75 67 89 89 95 75 74 81 71 66 67 69 71 70 69 64 66 68 72 78 81 85 88 85 98 100 99 90 90 98 100 100 100 99 98 97 95 94 100 99 86 72 58 75
59 56 85 80 74 72 70 71 72 68 70 69 65 64 69 65 65 67 71 76 82 84 90 87 90 100 96 82 84 100 100 100 90 90 98 94 94 94 94 99 98 92 91 52
63 69 82 80 71 69 70 70 70 68 66 66 66 66 65 66 66 68 72 74 78 83 89 84 82 93 87 76 85 96 100 100 79 86 99 91 92 94 94 97 98 95 98 87
55 80 90 91 68 69 75 72 77 75 70 70 69 69 68 66 68 70 72 76 79 84 85 82 80 78 71 68 81 92 100 100 91 92 96 87 88 92 94 92 88 99 99 86